Hutchinson, KS

7:00 PM CDT on May 29, 2017 (GMT -0500)
Hutchinson Municipal

Weather History for KHUT - February, 2013

Change the Weather History Date:

Friday, February 22, 2013

  Actual Average Record
Temperature  
Mean Temperature 14 °F -  
Max Temperature 24 °F 46 °F 80 °F (2017)
Min Temperature 3 °F 24 °F 3 °F (2013)
Degree Days  
Heating Degree Days 52    
Moisture  
Dew Point 8 °F    
Average Humidity 77    
Maximum Humidity 92    
Minimum Humidity 62    
Precipitation  
Precipitation 0.00 in - - ()
Sea Level Pressure  
Sea Level Pressure 30.09 in    
Wind  
Wind Speed 11 mph (WNW)    
Max Wind Speed 17 mph    
Max Gust Speed -    
Visibility 9 miles    
Events Fog , Snow    
Averages and records for this station are not official NWS values.
T = Trace of Precipitation, MM = Missing Value Source: NWS Daily Summary

Daily Weather History Graph

Daily Weather History Graph

Search for Another Location

Airport or City:

Trip Planner

Search our weather history database for the weather conditions in past years. The results will help you decide how hot, cold, wet, or windy it might be!

Date:

Astronomy

Feb. 22, 2013 Rise Set
Actual Time 7:12 AM CST 6:17 PM CST
Civil Twilight 6:45 AM CST 6:44 PM CST
Nautical Twilight 6:15 AM CST 7:15 PM CST
Astronomical Twilight 5:44 AM CST 7:45 PM CST
Moon 3:32 PM CST (2/22) 4:56 AM CST (2/22)
Length of Visible Light 11h 58m
Length of Day
11h 05m
Waxing Gibbous, 90% of the Moon is Illuminated
Feb 22
Waxing Gibbous
Feb 25
Full
Mar 4
Last Quarter
Mar 11
New
Mar 19
First Quarter

Hourly Weather History & Observations

Time (CST) Temp. Windchill Dew Point Humidity Pressure Visibility Wind Dir Wind Speed Gust Speed Precip Events Conditions
12:02 AM 14.0 °F -0.8 °F 10.4 °F 86% 29.90 in 8.0 mi NW 13.8 mph - 0.00 in Snow Light Snow
12:52 AM 14.0 °F -2.0 °F 9.0 °F 80% 29.96 in 10.0 mi NW 16.1 mph - 0.00 in   Clear
1:52 AM 10.9 °F -3.4 °F 7.0 °F 84% 29.98 in 10.0 mi WNW 11.5 mph - N/A   Clear
2:52 AM 10.9 °F -1.8 °F 7.0 °F 84% 30.01 in 10.0 mi WNW 9.2 mph - N/A   Clear
3:52 AM 12.0 °F -3.4 °F 7.0 °F 80% 30.01 in 10.0 mi NW 13.8 mph - 0.00 in   Clear
4:52 AM 12.9 °F -3.9 °F 7.0 °F 77% 29.99 in 10.0 mi NW 17.3 mph - N/A   Clear
6:52 AM 8.1 °F -7.7 °F 3.9 °F 83% 30.06 in 10.0 mi WNW 12.7 mph - 0.00 in Snow Light Snow
7:52 AM 8.1 °F -7.0 °F 3.0 °F 80% 30.08 in 10.0 mi NW 11.5 mph - 0.00 in   Clear
8:52 AM 10.0 °F -5.9 °F 3.9 °F 76% 30.11 in 10.0 mi WNW 13.8 mph - N/A   Clear
9:52 AM 12.9 °F -1.6 °F 6.1 °F 74% 30.13 in 10.0 mi NW 12.7 mph - N/A   Clear
10:52 AM 17.1 °F 6.6 °F 10.0 °F 74% 30.14 in 10.0 mi West 8.1 mph - N/A   Clear
11:52 AM 19.9 °F 10.1 °F 10.9 °F 68% 30.16 in 10.0 mi West 8.1 mph - N/A   Clear
12:52 PM 21.9 °F 13.4 °F 12.9 °F 68% 30.15 in 10.0 mi West 6.9 mph - N/A   Clear
1:52 PM 23.0 °F 11.7 °F 12.9 °F 65% 30.14 in 10.0 mi WNW 11.5 mph - N/A   Clear
2:52 PM 24.1 °F 14.4 °F 12.9 °F 62% 30.12 in 10.0 mi WNW 9.2 mph - N/A   Clear
3:52 PM 24.1 °F 13.1 °F 12.9 °F 62% 30.12 in 10.0 mi WNW 11.5 mph - N/A   Clear
4:52 PM 23.0 °F 15.8 °F 12.0 °F 63% 30.11 in 10.0 mi WNW 5.8 mph - N/A   Clear
5:52 PM 21.0 °F 13.4 °F 12.0 °F 68% 30.11 in 10.0 mi NW 5.8 mph - N/A   Clear
6:52 PM 19.0 °F - 10.9 °F 71% 30.14 in 10.0 mi Calm Calm - N/A   Clear
7:52 PM 14.0 °F 5.1 °F 10.0 °F 84% 30.15 in 10.0 mi WNW 5.8 mph - N/A   Clear
8:52 PM 12.0 °F 1.5 °F 8.1 °F 84% 30.15 in 9.0 mi WNW 6.9 mph - N/A   Clear
9:52 PM 10.9 °F 4.7 °F 8.1 °F 88% 30.15 in 7.0 mi NW 3.5 mph - N/A   Clear
10:52 PM 12.0 °F 5.9 °F 8.1 °F 84% 30.15 in 7.0 mi WNW 3.5 mph - N/A   Clear
11:40 PM 3.2 °F - 1.4 °F 92% 30.08 in 1.8 mi Calm Calm - N/A   Clear
11:52 PM 6.1 °F -0.9 °F 1.9 °F 83% 30.14 in 0.8 mi SSE 3.5 mph - N/A   Clear
11:57 PM 5.0 °F -2.1 °F 3.2 °F 92% 30.08 in 0.2 mi South 3.5 mph - N/A Fog Light Freezing Fog